Showing default

COSMOS 2488, 39483

Orbit data source: Space-Track

COSMOS 2488, 39483 is a payload satellite owned by VVKO (CIS) in LEO that was launched on Wed, 25 Dec 2013 UTC via an ROKOT launch vehicle from the Plesetsk Missile And Space Complex (PKMTR). Payload-class satellites include a variety of spacecraft equipped with specific instruments for various scientific and technological missions. These include communications satellites like Starlink; space stations such as the ISS; scientific satellites like the Hubble; Earth observation satellites from companies like Planet Labs, Umbra, and HawkEye 360; GPS; miniature CubeSats for education and research; and military/defense satellites.

Loading next visibility...
Identifier
39483, 2013-076A
Orbit
LEO
Country
Flag of CISCIS
Related business
Manufacturer
Resehetnev ISS
Mission
Operational Civil Communications
Bus & Motor
STRELA-3M, Unknown motor
Mass
280 kg wet, 280 kg dry
Launch date (UTC)
2013-12-25 (12 years ago)
Launch vehicle
ROKOT
Launch site
Plesetsk Missile And Space Complex (PKMTR)
Object type
Payload
Rocket body
Debris
Shape & HBR
Cyl + 1 Ant, 3.5 m
Radar Cross Section
1.583 m², Large (>1 m²)

Expand to show TLE details & history
Last TLE update: 18 hours ago

TLE from 18 hours ago
0 COSMOS 2488
1 39483U 13076A   25242.28221600  .00000044  00000-0  24843-3 0  9992
2 39483  82.4898 349.9826 0018928  12.9800 347.1763 12.42865203529759
Epoch: 2025-08-30T06:46Z
TLE epoch observation values (Epoch: 2025-08-30T06:46:23.462Z)
Latitude
-0.00002°
Longitude
-90.33391°
Altitude
1,482.649 km
Speed
7.129 km/s
True Right ascension
23h 19m 55s
True Declination
0° 00' 00"
Sunlit
Object was in full shadow at epoch
Visualization orbit readout
Latitude
Unknown
Longitude
Unknown
Altitude
Unknown
Speed
Unknown
Apparent Right ascension
Unknown
Apparent Declination
Unknown
Sunlit
N/A
Visualization observer readout
Local Sidereal Time
16:13:51
Azimuth
Unknown
Elevation
Unknown
Doppler factor
Unknown
Orbital elements
Apogee altitude
1,506.729 km
Perigee altitude
1,476.936 km
Semi-major axis
7,869.969 km
Eccentricity
0.00189
Inclination
82.4898°
RAAN
349.9826°
Arg. of periapsis
12.98°
True anomaly
347.12805°
Mean anomaly
347.1763°
Eccentric anomaly
347.15218°
Mean motion
3.10873 °/min
Orbital period
115.8 mins
BSTAR
0.00024843
Loading maneuver chart data...
Computing Atmospheric mass density...
Loading historical data...
Loading historical data...
Loading historical data...
Loading historical data...
Loading historical data...
Loading historical data...
Loading historical data...

Documentation

Showing up to 5 results
|